EIN824 EICK-LFMN

Flight info

Callsign EIN824
Flight time N/A
Altitude 37000
Route ERTER1S ERTER DCT LEDGO DCT OTOFE UZ57 LATGO DCT DOMOD DCT MOU A3 LESPI DCT MURRO A3 PERUS
Aircraft A320/M-SDE3FGHIRWY/LB1

Departure

Time 2026-04-28 12:17
Airport Cork International Airport (EICK)

Arrival

Time N/A
Airport Nice-Côte d'Azur Airport (LFMN)
Time Latitude Longitude Altitude Speed Heading
2026-04-28 11:44 51.84753 -8.49033 505 ft 0 kts 69°
2026-04-28 12:09 51.84753 -8.49035 504 ft 2 kts 69°
2026-04-28 12:10 51.84744 -8.49073 504 ft 4 kts 68°
2026-04-28 12:10 51.84733 -8.49112 504 ft 4 kts 63°
2026-04-28 12:10 51.84719 -8.49149 504 ft 4 kts 44°
2026-04-28 12:10 51.84701 -8.49165 504 ft 2 kts 343°
2026-04-28 12:11 51.84699 -8.49165 504 ft 0 kts 340°
2026-04-28 12:14 51.84700 -8.49165 504 ft 1 kts 340°
2026-04-28 12:14 51.84775 -8.49203 504 ft 17 kts 347°
2026-04-28 12:15 51.84880 -8.49246 504 ft 15 kts 341°
2026-04-28 12:15 51.84975 -8.49289 504 ft 13 kts 345°
2026-04-28 12:15 51.85060 -8.49332 504 ft 12 kts 341°
2026-04-28 12:15 51.85130 -8.49390 504 ft 11 kts 314°
2026-04-28 12:16 51.85125 -8.49486 504 ft 9 kts 220°
2026-04-28 12:16 51.85065 -8.49541 504 ft 15 kts 208°
2026-04-28 12:16 51.84972 -8.49598 504 ft 13 kts 181°
2026-04-28 12:16 51.84922 -8.49581 504 ft 0 kts 162°
2026-04-28 12:17 51.84800 -8.49508 504 ft 55 kts 159°
2026-04-28 12:17 51.84230 -8.49171 505 ft 119 kts 160°
2026-04-28 12:17 51.83308 -8.48636 674 ft 151 kts 160°
2026-04-28 12:17 51.82329 -8.48142 1398 ft 146 kts 158°
2026-04-28 12:18 51.81333 -8.47645 1940 ft 157 kts 157°
2026-04-28 12:18 51.80214 -8.47076 2240 ft 180 kts 156°
2026-04-28 12:18 51.78942 -8.46421 2533 ft 204 kts 156°
2026-04-28 12:18 51.77654 -8.45287 2844 ft 221 kts 134°
2026-04-28 12:19 51.76901 -8.44101 3135 ft 235 kts 128°
2026-04-28 12:19 51.75794 -8.42010 3732 ft 251 kts 125°
2026-04-28 12:19 51.74314 -8.39065 4955 ft 258 kts 125°
2026-04-28 12:19 51.73167 -8.36824 5898 ft 260 kts 125°
2026-04-28 12:20 51.71990 -8.34578 6822 ft 264 kts 126°
2026-04-28 12:20 51.70779 -8.32316 7628 ft 269 kts 126°
2026-04-28 12:20 51.69962 -8.30811 8171 ft 271 kts 127°
2026-04-28 12:20 51.68703 -8.28511 8990 ft 276 kts 127°
2026-04-28 12:21 51.67422 -8.26187 9827 ft 280 kts 127°
2026-04-28 12:21 51.66118 -8.23827 10616 ft 285 kts 127°
2026-04-28 12:21 51.64747 -8.21344 10903 ft 308 kts 127°
2026-04-28 12:21 51.62766 -8.17754 11170 ft 339 kts 127°
2026-04-28 12:22 51.61151 -8.14841 11522 ft 355 kts 128°
2026-04-28 12:22 51.60050 -8.12870 11939 ft 359 kts 128°
2026-04-28 12:22 51.58346 -8.09828 12635 ft 364 kts 127°
2026-04-28 12:22 51.56667 -8.06838 13306 ft 368 kts 127°
2026-04-28 12:23 51.54899 -8.03824 13993 ft 373 kts 129°
2026-04-28 12:23 51.53038 -8.00877 14604 ft 378 kts 131°
2026-04-28 12:23 51.51114 -7.97956 15200 ft 383 kts 131°
2026-04-28 12:23 51.49157 -7.95027 15796 ft 386 kts 131°
2026-04-28 12:24 51.47183 -7.92071 16392 ft 390 kts 131°
2026-04-28 12:24 51.45199 -7.89082 16985 ft 394 kts 131°
2026-04-28 12:24 51.43203 -7.86047 17572 ft 397 kts 130°
2026-04-28 12:24 51.41194 -7.82976 18160 ft 401 kts 130°
2026-04-28 12:25 51.39194 -7.79916 18730 ft 405 kts 130°
2026-04-28 12:25 51.37149 -7.76785 19235 ft 408 kts 130°
2026-04-28 12:25 51.35086 -7.73633 19741 ft 412 kts 130°
2026-04-28 12:25 51.33005 -7.70461 20231 ft 415 kts 130°
2026-04-28 12:26 51.30908 -7.67274 20731 ft 418 kts 130°
2026-04-28 12:26 51.28786 -7.64052 21227 ft 422 kts 129°
2026-04-28 12:26 51.26652 -7.60820 21678 ft 425 kts 129°
2026-04-28 12:26 51.24543 -7.57505 22119 ft 424 kts 124°
2026-04-28 12:27 51.22779 -7.53853 22536 ft 419 kts 116°
2026-04-28 12:27 51.21185 -7.49944 22976 ft 422 kts 116°
2026-04-28 12:27 51.19576 -7.46018 23386 ft 425 kts 116°
2026-04-28 12:27 51.17947 -7.42069 23795 ft 428 kts 116°
2026-04-28 12:28 51.16302 -7.38099 24142 ft 431 kts 116°
2026-04-28 12:28 51.14644 -7.34110 24478 ft 433 kts 116°
2026-04-28 12:28 51.12978 -7.30100 24815 ft 435 kts 116°
2026-04-28 12:28 51.11312 -7.26079 25152 ft 437 kts 116°
2026-04-28 12:29 51.07945 -7.17966 25796 ft 441 kts 115°
2026-04-28 12:29 51.06270 -7.13946 26107 ft 443 kts 116°
2026-04-28 12:29 51.04557 -7.09858 26461 ft 445 kts 115°
2026-04-28 12:30 51.02837 -7.05763 26795 ft 446 kts 115°
2026-04-28 12:30 51.01115 -7.01662 27105 ft 447 kts 115°
2026-04-28 12:30 50.99391 -6.97549 27402 ft 448 kts 115°
2026-04-28 12:30 50.97660 -6.93425 27680 ft 450 kts 115°
2026-04-28 12:31 50.95919 -6.89294 27951 ft 451 kts 115°
2026-04-28 12:31 50.94172 -6.85152 28199 ft 453 kts 115°
2026-04-28 12:31 50.92417 -6.81000 28456 ft 454 kts 115°
2026-04-28 12:31 50.90677 -6.76889 28735 ft 454 kts 115°
2026-04-28 12:32 50.88925 -6.72759 29068 ft 453 kts 115°
2026-04-28 12:32 50.87168 -6.68622 29417 ft 452 kts 115°
2026-04-28 12:32 50.85416 -6.64502 29759 ft 450 kts 115°
2026-04-28 12:32 50.83669 -6.60393 30103 ft 449 kts 115°
2026-04-28 12:33 50.81924 -6.56302 30504 ft 448 kts 114°
2026-04-28 12:33 50.80188 -6.52251 30934 ft 442 kts 114°
2026-04-28 12:33 50.78471 -6.48254 31309 ft 439 kts 114°
2026-04-28 12:33 50.76760 -6.44269 31634 ft 437 kts 114°
2026-04-28 12:34 50.75060 -6.40303 31938 ft 436 kts 114°
2026-04-28 12:34 50.73365 -6.36344 32226 ft 435 kts 114°
2026-04-28 12:34 50.71694 -6.32450 32535 ft 434 kts 114°
2026-04-28 12:34 50.70000 -6.28515 32845 ft 433 kts 114°
2026-04-28 12:35 50.68304 -6.24583 33097 ft 434 kts 114°
2026-04-28 12:35 50.66604 -6.20654 33356 ft 434 kts 114°
2026-04-28 12:35 50.64904 -6.16728 33634 ft 433 kts 114°
2026-04-28 12:35 50.63203 -6.12809 33908 ft 433 kts 114°
2026-04-28 12:36 50.61506 -6.08905 34178 ft 433 kts 114°
2026-04-28 12:36 50.59806 -6.04997 34489 ft 433 kts 115°
2026-04-28 12:36 50.58102 -6.01080 34656 ft 435 kts 115°
2026-04-28 12:36 50.56392 -5.97149 34835 ft 436 kts 115°
2026-04-28 12:37 50.54678 -5.93209 35020 ft 437 kts 115°
2026-04-28 12:37 50.52956 -5.89266 35207 ft 438 kts 115°
2026-04-28 12:37 50.51227 -5.85324 35401 ft 438 kts 116°
2026-04-28 12:37 50.49517 -5.81433 35594 ft 439 kts 116°
2026-04-28 12:38 50.47776 -5.77475 35721 ft 442 kts 117°
2026-04-28 12:38 50.46026 -5.73500 35856 ft 443 kts 117°
2026-04-28 12:38 50.44271 -5.69522 36024 ft 444 kts 117°
2026-04-28 12:38 50.42512 -5.65539 36196 ft 444 kts 117°
2026-04-28 12:39 50.40750 -5.61555 36374 ft 445 kts 117°
2026-04-28 12:39 50.38988 -5.57569 36544 ft 445 kts 118°
2026-04-28 12:39 50.37223 -5.53586 36723 ft 445 kts 118°
2026-04-28 12:39 50.35453 -5.49602 36869 ft 446 kts 119°
2026-04-28 12:40 50.33674 -5.45614 37020 ft 447 kts 119°
2026-04-28 12:40 50.31917 -5.41681 37192 ft 447 kts 119°
2026-04-28 12:40 50.30138 -5.37692 37271 ft 449 kts 120°
2026-04-28 12:41 50.26545 -5.29652 37279 ft 453 kts 120°
2026-04-28 12:41 50.22925 -5.21583 37276 ft 454 kts 120°
2026-04-28 12:42 50.19296 -5.13523 37277 ft 454 kts 121°
2026-04-28 12:42 50.15661 -5.05471 37277 ft 454 kts 120°
2026-04-28 12:43 50.12031 -4.97433 37279 ft 454 kts 121°
2026-04-28 12:43 50.08408 -4.89450 37303 ft 454 kts 121°
2026-04-28 12:44 50.04748 -4.81413 37293 ft 456 kts 121°
2026-04-28 12:44 50.01068 -4.73375 37293 ft 457 kts 121°
2026-04-28 12:45 49.97377 -4.65337 37294 ft 457 kts 121°
2026-04-28 12:45 49.93693 -4.57301 37290 ft 457 kts 121°
2026-04-28 12:46 49.90017 -4.49316 37298 ft 458 kts 121°
2026-04-28 12:46 49.86303 -4.41300 37309 ft 459 kts 122°
2026-04-28 12:47 49.82576 -4.33267 37287 ft 459 kts 122°
2026-04-28 12:47 49.78839 -4.25234 37283 ft 460 kts 122°
2026-04-28 12:48 49.75096 -4.17206 37283 ft 460 kts 122°
2026-04-28 12:48 49.71371 -4.09230 37274 ft 460 kts 122°
2026-04-28 12:49 49.67615 -4.01226 37296 ft 461 kts 122°
2026-04-28 12:49 49.63836 -3.93213 37280 ft 462 kts 123°
2026-04-28 12:50 49.60043 -3.85197 37270 ft 463 kts 123°
2026-04-28 12:50 49.56248 -3.77185 37267 ft 463 kts 123°
2026-04-28 12:51 49.52463 -3.69217 37263 ft 464 kts 123°
2026-04-28 12:51 49.48646 -3.61204 37265 ft 464 kts 123°
2026-04-28 12:52 49.44820 -3.53204 37280 ft 465 kts 123°
2026-04-28 12:52 49.40986 -3.45195 37272 ft 465 kts 123°
2026-04-28 12:53 49.37137 -3.37200 37262 ft 466 kts 124°
2026-04-28 12:53 49.33309 -3.29261 37260 ft 466 kts 123°
2026-04-28 12:54 49.29453 -3.21272 37255 ft 466 kts 124°
2026-04-28 12:54 49.25585 -3.13316 37255 ft 466 kts 124°
2026-04-28 12:55 49.21704 -3.05351 37252 ft 467 kts 124°
2026-04-28 12:55 49.17842 -2.97434 37243 ft 467 kts 125°
2026-04-28 12:56 49.13943 -2.89478 37247 ft 468 kts 124°
2026-04-28 12:56 49.10044 -2.81531 37231 ft 468 kts 125°
2026-04-28 12:57 49.06137 -2.73581 37242 ft 468 kts 125°
2026-04-28 12:57 49.02215 -2.65652 37217 ft 469 kts 126°
2026-04-28 12:58 48.98306 -2.57775 37215 ft 470 kts 126°
2026-04-28 12:58 48.94509 -2.49703 37215 ft 468 kts 117°
2026-04-28 12:59 48.92083 -2.40580 37218 ft 465 kts 107°
2026-04-28 12:59 48.90054 -2.31236 37216 ft 465 kts 107°
2026-04-28 13:00 48.88006 -2.21915 37194 ft 466 kts 107°
2026-04-28 13:00 48.85964 -2.12642 37195 ft 466 kts 108°
2026-04-28 13:01 48.83905 -2.03315 37184 ft 467 kts 108°
2026-04-28 13:01 48.81832 -1.93981 37197 ft 467 kts 108°
2026-04-28 13:02 48.79751 -1.84648 37191 ft 467 kts 108°
2026-04-28 13:02 48.77665 -1.75333 37195 ft 467 kts 108°
2026-04-28 13:03 48.75585 -1.66084 37181 ft 466 kts 108°
2026-04-28 13:03 48.73482 -1.56788 37184 ft 466 kts 108°
2026-04-28 13:04 48.71378 -1.47513 37162 ft 466 kts 109°
2026-04-28 13:04 48.69262 -1.38236 37155 ft 466 kts 109°
2026-04-28 13:05 48.67141 -1.28959 37157 ft 466 kts 109°
2026-04-28 13:05 48.65025 -1.19747 37144 ft 468 kts 109°
2026-04-28 13:06 48.62878 -1.10448 37114 ft 469 kts 110°
2026-04-28 13:06 48.60714 -1.01122 37099 ft 471 kts 110°
2026-04-28 13:07 48.58539 -0.91784 37107 ft 472 kts 110°
2026-04-28 13:07 48.56352 -0.82432 37105 ft 472 kts 110°
2026-04-28 13:08 48.54505 -0.72992 37108 ft 474 kts 102°
2026-04-28 13:08 48.53209 -0.63234 37114 ft 474 kts 102°
2026-04-28 13:09 48.51901 -0.53477 37100 ft 474 kts 102°
2026-04-28 13:09 48.50592 -0.43723 37096 ft 475 kts 102°
2026-04-28 13:10 48.49276 -0.34055 37106 ft 474 kts 102°
2026-04-28 13:10 48.47585 -0.24479 37103 ft 472 kts 114°
2026-04-28 13:11 48.44441 -0.15833 37087 ft 471 kts 122°
2026-04-28 13:11 48.41096 -0.07342 37077 ft 472 kts 122°
2026-04-28 13:12 48.37752 0.01153 37069 ft 473 kts 122°
2026-04-28 13:12 48.34419 0.09613 37067 ft 474 kts 122°
2026-04-28 13:13 48.31048 0.18122 37080 ft 474 kts 122°
2026-04-28 13:13 48.27664 0.26630 37075 ft 474 kts 123°
2026-04-28 13:14 48.24278 0.35124 37075 ft 474 kts 122°
2026-04-28 13:14 48.20907 0.43551 37051 ft 474 kts 123°
2026-04-28 13:15 48.17505 0.52006 37075 ft 473 kts 123°
2026-04-28 13:15 48.14106 0.60441 37081 ft 473 kts 123°
2026-04-28 13:16 48.10711 0.68856 37081 ft 472 kts 123°
2026-04-28 13:16 48.07332 0.77198 37082 ft 472 kts 123°
2026-04-28 13:17 48.03923 0.85587 37072 ft 472 kts 124°
2026-04-28 13:17 48.00503 0.93968 37062 ft 472 kts 124°
2026-04-28 13:18 47.97081 1.02351 37061 ft 473 kts 125°
2026-04-28 13:18 47.93641 1.10741 37068 ft 474 kts 125°
2026-04-28 13:19 47.90213 1.19060 37074 ft 474 kts 125°
2026-04-28 13:19 47.86753 1.27426 37061 ft 474 kts 126°
2026-04-28 13:20 47.83129 1.35603 37065 ft 473 kts 129°
2026-04-28 13:20 47.79290 1.43533 37050 ft 472 kts 130°
2026-04-28 13:21 47.75436 1.51432 37051 ft 473 kts 130°
2026-04-28 13:21 47.71647 1.59341 37047 ft 473 kts 129°
2026-04-28 13:22 47.67848 1.67337 37044 ft 474 kts 129°
2026-04-28 13:22 47.64042 1.75316 37031 ft 474 kts 130°
2026-04-28 13:23 47.60205 1.83275 37036 ft 474 kts 130°
2026-04-28 13:23 47.56360 1.91224 37028 ft 475 kts 130°
2026-04-28 13:24 47.52541 1.99114 37032 ft 475 kts 130°
2026-04-28 13:24 47.48690 2.07059 37034 ft 475 kts 130°
2026-04-28 13:25 47.44833 2.14993 37025 ft 475 kts 130°
2026-04-28 13:25 47.40995 2.22864 37024 ft 475 kts 130°
2026-04-28 13:26 47.37133 2.30773 37031 ft 475 kts 130°
2026-04-28 13:26 47.33254 2.38663 37011 ft 475 kts 131°
2026-04-28 13:27 47.29377 2.46536 37019 ft 475 kts 131°
2026-04-28 13:27 47.25489 2.54409 37010 ft 475 kts 131°
2026-04-28 13:28 47.21619 2.62219 37019 ft 475 kts 131°
2026-04-28 13:28 47.17727 2.70068 37017 ft 475 kts 131°
2026-04-28 13:29 47.13835 2.77907 37005 ft 475 kts 131°
2026-04-28 13:29 47.09932 2.85740 37025 ft 475 kts 131°
2026-04-28 13:30 47.06022 2.93552 37028 ft 475 kts 131°
2026-04-28 13:30 47.02127 3.01297 37037 ft 475 kts 131°
2026-04-28 13:31 46.96242 3.12963 37046 ft 475 kts 131°
2026-04-28 13:31 46.92311 3.20745 37027 ft 475 kts 131°
2026-04-28 13:32 46.88380 3.28503 37013 ft 475 kts 131°
2026-04-28 13:32 46.84467 3.36212 37032 ft 476 kts 131°
2026-04-28 13:33 46.80519 3.43972 37031 ft 476 kts 131°
2026-04-28 13:33 46.76561 3.51711 37031 ft 476 kts 131°
2026-04-28 13:34 46.72443 3.59203 37034 ft 469 kts 141°
2026-04-28 13:34 46.67290 3.64760 37034 ft 455 kts 158°
2026-04-28 13:35 46.61529 3.68177 37026 ft 449 kts 165°
2026-04-28 13:35 46.55682 3.71363 37024 ft 449 kts 165°
2026-04-28 13:36 46.49824 3.74560 37011 ft 450 kts 165°
2026-04-28 13:36 46.43968 3.77757 37023 ft 451 kts 164°
2026-04-28 13:37 46.38168 3.81090 37020 ft 452 kts 163°
2026-04-28 13:37 46.32331 3.84471 37031 ft 451 kts 164°
2026-04-28 13:38 46.26460 3.87671 37016 ft 451 kts 165°
2026-04-28 13:38 46.20579 3.90813 37026 ft 451 kts 165°
2026-04-28 13:39 46.14728 3.93947 37035 ft 452 kts 165°
2026-04-28 13:39 46.08841 3.97123 37015 ft 452 kts 165°
2026-04-28 13:40 46.02950 4.00315 37021 ft 452 kts 165°
2026-04-28 13:40 45.97056 4.03511 37027 ft 453 kts 165°
2026-04-28 13:41 45.91160 4.06693 37032 ft 453 kts 165°
2026-04-28 13:41 45.85298 4.09855 37025 ft 453 kts 165°
2026-04-28 13:42 45.79396 4.13025 37028 ft 453 kts 165°
2026-04-28 13:42 45.73485 4.16191 37034 ft 453 kts 165°
2026-04-28 13:43 45.67582 4.19350 37029 ft 453 kts 165°
2026-04-28 13:43 45.61670 4.22507 37045 ft 453 kts 165°
2026-04-28 13:44 45.55795 4.25627 37053 ft 454 kts 165°
2026-04-28 13:44 45.49876 4.28765 37056 ft 454 kts 165°
2026-04-28 13:45 45.43953 4.31910 37044 ft 454 kts 165°
2026-04-28 13:45 45.38027 4.35050 37044 ft 454 kts 165°
2026-04-28 13:46 45.32104 4.38179 37041 ft 454 kts 165°
2026-04-28 13:46 45.26214 4.41278 37031 ft 454 kts 165°
2026-04-28 13:47 45.20282 4.44397 37028 ft 454 kts 165°
2026-04-28 13:47 45.14355 4.47510 37032 ft 455 kts 165°
2026-04-28 13:48 45.08419 4.50616 37015 ft 455 kts 165°
2026-04-28 13:48 45.02519 4.53690 37025 ft 455 kts 165°
2026-04-28 13:49 44.96586 4.56775 37026 ft 455 kts 165°
2026-04-28 13:49 44.90647 4.59868 37021 ft 455 kts 165°
2026-04-28 13:50 44.84701 4.62950 37011 ft 455 kts 165°
2026-04-28 13:50 44.78760 4.66015 37030 ft 455 kts 165°
2026-04-28 13:51 44.72849 4.69058 37029 ft 455 kts 165°
2026-04-28 13:51 44.66898 4.72121 37038 ft 455 kts 165°
2026-04-28 13:52 44.61025 4.75478 37038 ft 461 kts 155°
2026-04-28 13:52 44.58378 4.78065 37040 ft 468 kts 143°
2026-04-28 13:52 44.56112 4.81373 37038 ft 474 kts 131°
2026-04-28 13:53 44.54329 4.85282 37034 ft 480 kts 119°
2026-04-28 13:53 44.53107 4.89647 37030 ft 484 kts 108°